Weather in Gatineau

Canada     45°29′04″N   75°38′31″W
temp.,
°C
wind,
m/s
gust,
m/s
humid.,
%
clouds,
%
prec.,
mm/h
press.,
hPa
HPBL,
m
24 january, sun
sun2401:00−18wnw4128719 0.0 1025391
04:00−18wnw512870 0.0 1026407
07:00−19wnw411870 0.0 1026332
10:00−15nw510820 0.0 1026447
13:00−11wnw59810 0.0 1023568
16:00−11wnw488418 0.0 1022445
19:00−16wnw239135 0.0 102333
22:00−17wnw22890 0.0 102323
25 january, mon
mon2501:00−16wnw228843 0.0 102230
04:00−15nw128897 0.0 102224
07:00−18wnw118870 0.0 102220
10:00−12s119075 0.0 1022157
13:00−7ssw019086 0.1 1020314
16:00−7ese119597 0.1 101964
19:00−11nne119590 0.1 102021
22:00−13n129278 0.0 102121
26 january, tue
tue2601:00−13nne229285 0.0 102120
04:00−14n129125 0.0 102020
07:00−15nne129058 0.0 102120
10:00−11ene1382100 0.0 1020202
13:00−7ene3584100 0.0 1019378
16:00−7e1292100 0.0 101848
19:00−10ene1292100 0.0 101925
22:00−11ne1194100 0.0 102022
27 january, wed
wed2701:00−12nnw129298 0.0 102121
04:00−13nnw229258 0.0 102320
07:00−15nnw239237 0.0 102525
10:00−10nnw22880 0.0 1026199
13:00−6nw128448 0.0 1025516
16:00−5nnw2388100 0.0 1023486
19:00−9nw2393100 0.0 102672
22:00−11nnw3394100 0.0 102552
28 january, thu
thu2801:00−13nnw239495 0.0 102426
04:00−12nnw2495100 0.1 102483
07:00−14nnw379299 0.1 1025198
10:00−12nnw488958 0.0 1026381
13:00−10nnw588773 0.0 1025534
16:00−11nnw5118596 0.0 1024583
19:00−15nnw5138565 0.0 1026490
22:00−18nw411860 0.0 1028336